Theta_e
323 323 322 321 321 320 320 321 321 321 320 320 321 320 320 319 319 319 319 319 319 319 320 322 322 323 315 307 307 334 350 350 340 333 336 335 331 328 325 326 329 326 327 326 320 320 319
322 322 321 321 320 320 320 320 320 320 320 320 320 319 319 319 319 319 319 318 318 319 321 321 322 323 309 304 321 333 330 331 331 337 337 333 326 331 328 327 326 329 328 324 323 322 321
321 320 320 320 320 320 320 320 319 319 319 319 319 319 319 319 319 319 318 317 318 320 321 322 323 322 311 308 320 328 325 323 331 336 331 328 324 325 328 326 333 330 324 324 325 326 321
320 320 319 320 320 319 319 319 319 318 318 318 318 318 318 318 318 318 318 316 318 321 322 322 323 315 300 316 319 322 320 318 322 324 325 327 326 320 328 335 329 323 323 313 323 326 327
319 319 319 319 319 318 318 318 318 318 318 318 318 318 318 318 318 317 317 317 319 323 324 324 311 309 301 322 316 317 319 317 318 317 318 324 316 325 326 319 315 317 313 315 317 327 327
318 318 318 319 318 317 317 317 317 317 317 317 317 317 317 317 317 316 316 317 323 320 322 323 321 305 310 312 314 315 316 320 315 309 308 310 310 310 316 312 304 307 309 315 315 321 322
317 317 318 318 317 317 317 317 317 317 317 317 317 317 316 316 316 315 311 313 307 304 311 300 304 307 312 316 317 313 314 312 309 304 298 302 303 302 311 317 315 314 313 313 318 323 319
317 316 316 316 316 316 316 317 317 317 317 317 317 316 316 315 314 314 308 306 309 309 303 309 308 313 314 313 308 310 312 305 302 298 299 298 297 305 312 312 317 315 312 313 320 324 316
316 315 315 315 315 316 316 316 316 317 316 316 316 316 315 314 314 309 307 308 312 315 299 305 308 307 308 310 307 308 310 304 300 297 296 295 302 306 305 308 313 311 311 312 314 320 320
315 315 314 315 316 316 316 316 316 316 316 315 315 315 314 312 311 313 312 314 313 309 296 302 302 309 308 308 304 312 310 306 301 298 297 297 303 304 302 314 316 305 318 318 317 312 305
314 314 314 316 316 316 316 316 316 316 315 315 315 315 313 312 307 312 314 316 315 307 291 307 304 309 305 305 304 305 309 305 300 299 298 298 300 301 301 303 312 308 310 317 316 309 306
314 314 316 316 316 316 316 315 315 315 315 315 314 314 313 311 307 313 316 313 307 297 294 303 303 300 301 301 304 306 305 306 305 300 299 299 305 304 303 305 307 306 300 297 298 299 296
314 315 316 316 316 316 316 315 315 315 315 314 313 312 309 311 307 312 313 307 295 292 303 298 297 298 297 299 301 303 301 299 296 293 291 299 300 302 305 300 301 298 293 288 288 288 290
314 316 316 316 316 316 315 315 315 315 314 313 311 310 310 311 309 315 308 301 291 300 301 306 304 296 297 299 299 301 299 296 299 297 293 292 293 300 304 301 298 294 293 288 284 285 289
314 316 316 316 316 315 315 315 315 314 313 312 309 302 304 310 313 311 305 293 293 300 306 305 303 295 294 298 299 298 297 298 300 299 295 291 293 303 305 302 302 295 291 292 287 285 285
315 316 316 316 315 315 315 315 315 314 312 311 300 303 307 316 315 308 300 294 298 305 306 304 298 299 296 298 295 296 296 301 302 302 299 297 292 299 304 303 300 298 298 291 287 284 282
315 316 316 315 315 315 315 314 314 313 311 309 302 305 310 315 310 304 295 295 302 307 308 303 300 299 300 299 298 295 298 302 303 301 301 294 293 297 300 297 298 294 291 289 290 287 285
316 316 316 315 315 315 314 314 313 312 310 304 296 303 311 311 302 296 296 300 304 306 306 303 303 302 300 299 297 297 300 302 308 304 298 299 293 292 298 301 302 297 296 292 288 286 286
315 316 316 315 315 315 314 314 313 311 310 302 296 297 307 308 295 293 296 301 302 303 302 300 301 303 302 299 296 299 302 308 311 307 301 300 292 289 292 295 296 295 295 290 289 287 286
315 316 315 315 315 315 315 314 313 312 311 301 299 295 300 300 296 294 293 295 296 302 302 301 300 301 299 297 298 299 302 309 311 311 324 308 291 292 290 293 296 294 297 295 293 287 288
315 314 315 315 315 315 315 315 314 312 312 302 298 294 298 293 294 295 295 294 296 297 301 300 297 299 298 296 299 300 303 305 309 312 307 301 294 291 295 296 297 298 298 295 292 292 290
314 314 313 312 314 315 315 315 314 312 310 303 297 296 297 294 295 294 294 294 298 299 298 297 297 301 303 299 301 299 301 300 300 305 303 301 296 295 296 298 298 296 299 298 297 296 294
313 312 312 312 312 314 315 315 314 311 308 300 301 301 298 293 292 291 293 297 299 301 301 303 301 298 298 302 305 306 305 304 303 302 301 299 297 295 291 297 297 292 295 298 297 298 297
312 312 311 312 312 313 315 315 313 312 310 306 301 299 295 291 293 294 299 300 300 300 298 302 304 299 304 308 304 303 302 301 303 303 304 300 296 295 292 294 288 294 302 301 303 306 307
310 311 311 311 312 312 313 315 314 313 310 304 304 301 296 291 295 297 297 297 298 299 299 301 304 305 305 300 295 292 292 295 299 302 300 301 296 293 293 291 295 301 305 304 299 302 309
308 309 310 310 311 312 312 314 315 314 310 305 304 304 299 293 292 300 296 296 294 292 297 300 305 304 303 297 295 288 287 292 292 296 295 298 301 296 292 292 289 298 309 313 308 296 309
307 307 308 309 310 311 312 313 315 315 312 308 304 305 300 294 295 296 294 294 297 294 293 296 300 300 303 295 291 290 290 295 290 290 289 291 291 292 293 293 299 305 309 312 297 296 309
306 307 307 308 309 310 311 313 314 314 314 308 304 306 302 295 297 301 302 298 297 295 293 297 296 297 296 293 293 292 291 293 291 292 291 291 289 288 291 289 289 308 308 303 305 309 311
306 306 307 308 308 310 311 313 314 314 314 311 301 307 312 304 298 302 305 306 304 303 297 296 295 295 297 294 295 294 293 294 291 289 297 292 295 293 295 294 304 307 307 310 311 310 312
Wind_Speed
16 16 16 16 16 16 15 16 16 16 17 17 17 17 17 16 15 14 12 10 9 10 9 9 8 9 3 1 6 6 8 12 8 10 9 9 7 3 3 4 4 2 5 12 10 10 8
16 16 17 17 16 16 17 17 17 17 17 17 17 18 17 16 16 14 12 10 9 9 7 7 6 7 1 0 3 8 8 6 5 5 3 5 5 6 3 3 3 3 6 15 12 9 4
17 16 16 17 17 17 17 17 17 17 18 18 18 17 17 16 15 14 12 10 8 8 7 5 4 3 1 6 2 7 7 6 5 5 2 3 2 3 3 2 3 5 6 9 9 5 5
17 17 17 17 17 17 17 18 19 18 18 18 18 18 17 17 16 14 13 11 8 6 5 4 2 1 5 3 5 5 3 2 4 5 3 5 4 3 2 4 4 4 4 4 4 3 1
18 18 18 18 18 18 18 18 19 19 20 19 18 18 17 17 17 15 12 12 6 3 3 6 1 1 6 1 2 4 4 3 1 1 4 5 2 4 3 5 4 4 5 4 4 5 4
17 18 19 20 20 20 20 19 19 18 18 20 22 20 18 17 16 15 15 5 8 5 2 3 3 3 3 4 4 5 2 0 2 4 4 3 5 4 3 4 4 6 5 6 6 4 2
17 17 19 20 21 22 22 22 22 21 20 18 17 20 20 19 17 12 6 3 4 2 1 7 5 3 4 3 5 4 4 4 0 6 2 3 4 7 9 7 4 2 3 4 2 3 4
16 17 18 19 20 21 21 22 23 23 23 23 22 20 21 21 19 7 1 2 2 2 7 8 4 6 5 2 3 2 4 5 3 4 2 6 7 5 6 7 9 5 2 2 2 3 2
16 17 18 18 19 19 19 20 21 22 23 23 22 22 21 22 13 3 0 5 2 2 2 7 6 5 5 9 7 8 9 4 3 2 2 6 6 2 6 3 6 2 6 4 2 2 1
17 18 18 18 18 18 19 20 21 21 22 23 23 21 19 24 1 3 4 3 2 5 5 6 3 7 4 5 2 5 7 6 1 8 4 5 5 2 2 4 6 3 13 4 3 5 4
18 18 17 18 19 19 19 20 21 21 22 23 24 21 17 9 3 1 3 7 3 5 3 2 3 1 3 8 3 3 4 5 7 5 6 8 1 5 4 5 7 11 6 16 7 5 2
18 18 19 20 20 20 20 21 22 23 23 23 24 20 14 2 1 7 8 7 5 7 2 0 3 4 5 1 1 3 3 4 3 4 2 7 3 5 7 3 9 4 4 8 6 4 3
18 20 20 20 21 21 21 22 23 24 26 27 25 20 5 2 4 5 4 6 6 3 4 4 0 2 4 4 3 5 6 6 6 3 4 7 5 4 4 4 3 4 7 3 4 2 7
19 19 20 20 21 22 22 24 25 26 27 28 28 19 8 5 3 6 4 6 2 1 3 3 3 3 6 5 4 4 7 5 5 3 3 3 10 5 4 8 7 3 8 8 6 4 6
20 20 21 21 22 23 24 25 27 28 29 30 21 3 1 5 6 1 7 4 5 3 4 6 6 3 2 1 2 1 5 8 8 10 9 6 8 5 5 4 7 3 3 4 9 2 3
19 19 20 21 22 23 24 26 27 30 33 27 3 4 4 4 4 6 7 3 2 2 4 4 2 2 3 4 4 7 7 5 8 12 4 5 3 6 6 4 3 6 7 4 4 3 4
18 18 19 20 22 23 24 26 27 31 35 21 4 5 3 1 3 7 4 6 4 4 4 2 1 2 5 4 6 4 5 4 4 2 8 5 5 7 4 4 8 1 1 6 6 5 7
16 18 19 20 22 23 24 25 26 29 31 10 3 4 4 2 5 2 2 1 6 6 6 4 2 4 3 3 3 3 7 2 8 1 4 7 6 7 16 7 6 6 10 8 7 6 3
16 17 19 20 22 24 25 27 27 27 24 4 4 3 5 4 4 3 6 4 2 6 5 4 3 3 4 4 5 2 1 6 7 6 3 3 1 3 10 6 3 5 6 6 6 4 7
15 17 19 21 22 24 25 27 28 28 24 4 3 4 6 7 1 4 4 3 6 7 2 5 2 5 5 3 3 4 6 4 6 7 5 4 3 7 7 9 4 5 6 7 8 5 5
15 17 18 20 22 23 24 26 28 30 25 3 5 1 2 4 4 4 3 3 5 7 6 9 7 6 4 3 5 2 2 6 5 8 7 5 2 2 7 10 7 7 7 9 7 7 7
14 16 19 20 21 22 23 25 27 30 22 6 3 4 5 1 4 3 5 4 5 5 3 3 3 9 3 3 4 3 1 2 3 7 6 6 2 2 5 7 7 7 6 6 6 5 5
15 15 17 18 20 20 21 21 23 24 15 4 3 3 3 3 3 3 1 4 4 5 6 5 5 3 2 2 6 7 6 3 5 3 1 1 2 4 6 6 8 6 5 8 5 2 2
15 14 16 17 18 19 20 19 21 19 13 2 1 1 4 3 2 1 5 5 6 5 5 5 5 3 4 8 7 2 3 4 6 7 7 5 3 4 4 4 5 6 5 2 14 10 12
15 15 14 16 17 18 18 18 20 17 15 3 2 3 3 2 1 4 7 3 7 6 3 5 3 2 9 5 2 4 5 4 4 6 5 6 4 1 4 5 6 5 5 5 5 3 8
13 14 14 15 16 17 17 17 15 14 13 2 2 1 2 1 3 3 3 2 1 3 6 4 6 5 5 3 2 5 5 5 4 6 2 5 3 5 1 3 6 5 5 12 6 1 8
14 14 14 14 14 16 16 16 15 14 12 2 2 2 3 1 4 2 1 2 2 1 3 5 8 8 5 3 1 3 4 3 3 3 2 3 3 4 5 6 6 6 9 8 2 4 3
13 14 13 13 14 14 15 15 14 13 12 4 3 3 3 1 5 3 3 3 0 1 2 5 5 4 4 5 2 2 1 2 3 3 2 5 4 4 1 3 7 5 6 2 3 3 3
13 14 13 13 13 13 14 13 13 11 11 4 2 3 1 2 6 3 7 8 7 11 1 3 3 3 4 4 2 2 3 3 1 3 4 2 5 3 7 6 5 4 5 7 2 5 5
Wind_Direction
21 16 14 12 6 5 357 352 348 343 343 341 336 331 333 336 332 330 325 321 313 306 298 297 304 313 328 26 251 139 140 133 140 160 186 190 179 170 200 164 213 180 303 305 109 98 99
19 14 11 10 7 359 357 353 349 343 341 338 336 331 330 336 338 332 326 317 310 299 290 286 293 306 345 312 103 142 140 128 154 158 180 189 188 219 85 70 74 355 289 63 60 75 95
17 14 12 7 1 359 356 352 348 344 340 336 333 329 328 328 327 334 323 315 303 294 276 266 282 286 64 226 58 143 153 177 166 167 186 219 266 187 106 87 313 2 12 62 23 41 104
11 10 8 5 3 359 355 351 347 344 339 334 329 327 327 326 325 325 321 309 294 281 255 238 249 254 239 282 123 140 177 272 212 214 211 251 241 83 128 83 24 61 44 27 315 4 162
8 7 2 1 0 358 355 351 347 342 336 332 329 328 327 325 322 323 315 300 281 202 163 164 119 28 272 172 148 221 173 178 204 272 255 278 291 113 19 124 72 18 179 196 280 213 212
8 6 360 359 357 355 352 349 345 342 338 333 330 328 327 325 322 322 319 248 124 110 180 216 258 21 282 226 185 184 191 273 25 336 23 60 50 77 60 82 210 251 182 215 180 207 32
9 5 1 359 356 353 349 345 342 340 337 334 328 325 326 326 324 324 338 97 28 21 102 192 187 248 290 271 137 184 158 118 210 50 120 345 96 206 214 208 194 199 222 297 304 157 172
8 4 2 359 356 350 345 341 338 337 335 334 331 331 327 329 327 323 190 136 183 185 312 223 231 279 276 89 324 240 105 141 135 202 141 22 240 191 222 237 220 188 245 237 291 149 220
8 6 4 359 351 345 341 338 337 335 333 331 329 331 332 330 335 148 290 228 158 317 115 295 187 201 218 140 199 222 134 153 150 215 169 165 234 241 213 222 157 156 202 195 231 135 75
7 5 2 351 345 342 340 338 335 334 332 329 326 330 333 328 12 308 275 236 310 166 63 276 248 264 155 133 248 187 160 141 166 205 213 230 263 295 334 224 127 170 217 191 169 116 226
5 1 351 347 345 343 340 337 335 333 331 327 322 327 330 323 279 216 259 328 339 58 62 173 212 31 142 148 168 214 181 56 183 183 107 246 272 15 315 233 147 224 191 188 177 145 38
0 353 349 347 346 344 341 339 336 334 330 325 321 322 329 124 236 248 309 321 63 38 58 35 136 145 105 307 307 89 127 70 146 174 310 240 269 209 219 261 179 221 96 47 56 86 345
355 350 348 348 347 346 344 341 339 336 331 326 323 315 283 273 224 301 320 45 43 130 326 0 5 166 153 197 230 145 155 187 181 105 309 324 261 253 196 286 360 92 67 349 360 24 223
352 349 349 349 348 347 345 344 342 338 332 329 323 315 180 225 274 349 55 55 139 56 339 338 320 96 172 161 252 170 131 198 250 99 112 162 319 192 170 186 196 162 151 154 204 215 264
351 351 352 350 349 348 347 347 344 341 336 335 321 337 218 274 192 136 73 79 204 189 325 314 337 96 275 271 167 113 196 218 204 166 177 159 271 271 219 141 141 202 185 200 104 25 39
350 352 352 351 350 349 348 348 346 345 340 339 9 354 331 328 160 64 73 224 220 263 340 4 54 30 28 301 195 151 178 233 228 188 163 212 296 225 266 128 94 158 161 78 2 180 248
349 354 353 353 350 349 348 348 348 349 343 334 37 55 258 33 55 49 131 224 268 278 21 298 215 280 240 255 190 194 204 286 204 137 162 125 119 286 14 185 206 81 199 49 123 132 167
6 357 357 354 351 350 349 349 351 352 347 37 20 73 312 50 53 29 99 221 345 336 1 344 232 232 284 242 230 232 209 291 8 58 169 220 167 232 229 263 294 187 193 147 134 237 241
5 0 357 356 353 352 351 351 352 354 1 348 56 271 313 78 80 357 316 332 7 17 331 18 325 47 11 357 339 297 270 40 21 58 39 189 328 339 325 340 337 205 187 127 117 81 194
9 3 360 357 355 353 353 352 351 352 358 69 53 24 339 39 37 114 21 337 344 329 51 341 337 3 8 346 2 334 348 347 2 7 3 109 138 173 214 240 213 206 195 182 157 139 194
9 4 1 359 356 354 354 353 351 351 351 81 26 14 171 347 3 16 343 338 356 13 5 16 5 15 301 298 352 100 325 325 347 347 13 78 226 290 262 265 243 245 205 165 169 185 166
1 5 359 358 356 355 356 356 355 352 348 71 64 34 356 31 320 31 359 33 14 346 304 310 8 308 341 154 182 277 70 92 252 343 15 358 279 356 291 322 348 274 268 181 177 163 225
356 357 355 356 356 357 358 359 359 0 6 57 340 354 98 337 5 49 78 347 325 358 295 289 319 282 269 48 309 254 203 215 227 169 267 93 64 28 270 332 328 320 256 223 208 124 193
348 352 352 352 354 358 359 0 6 6 21 41 356 62 52 312 38 353 7 324 324 318 261 299 5 27 314 325 273 256 293 265 215 238 188 196 163 152 248 3 255 242 313 251 94 45 16
346 346 347 348 350 354 358 359 7 2 11 38 337 62 74 278 312 312 344 321 313 316 269 293 294 262 306 312 10 2 331 335 266 238 154 180 129 232 191 206 283 329 23 350 331 46 3
344 340 340 341 345 348 354 358 358 356 10 29 337 169 94 98 250 260 287 318 301 308 325 296 306 304 19 75 104 197 221 221 285 326 140 82 88 145 133 256 225 232 326 306 284 262 330
340 339 338 334 338 341 345 353 357 357 2 15 291 53 81 21 275 66 281 253 295 12 273 302 325 341 11 28 108 179 244 222 234 204 262 352 338 193 220 223 279 317 310 300 255 212 268
335 335 337 334 330 334 337 344 351 355 356 19 289 343 104 298 277 232 245 209 337 122 193 294 354 344 3 47 51 297 237 283 342 276 215 187 195 225 215 218 276 314 349 15 177 249 251
331 331 331 329 325 328 329 336 343 347 353 28 326 333 333 219 248 266 241 240 201 221 122 288 201 261 225 65 7 345 340 343 144 269 340 269 196 222 178 221 212 248 263 275 255 221 244